ROMMA est une association bénévole à but non lucratif. Votre soutien est indispensable : ADHERER à ROMMA ou FAIRE un DON

Chambon - (38, Isère)

Oisans (2460 m)   Longitude: 06° 10' 42" E   Latitude: 45° 01' 32" N Station partenaire n°803
 

Détail journalier du     <<     >>

Température Humidité Vent Dir Rafale Dir. rafale Neige 1 Neige 2
Heure (°C) (%) (km/h) (km/h) (cm) (cm)
01:00 -5.4998OSO19OSO048
02:00 -5.2993SO12OSO049
03:00 -5.3996SO9O050
04:00 -5.3997O12O051
05:00 -5.9998SO14SO050
06:00 -5.9987SO14SO050
07:00 -5.9986SO8SO051
08:00 -5.7988SO14OSO052
09:00 -5.3986SO15OSO052
10:00 -3.5982NNE8NNE051
11:00 -0.81003NNE10OSO051
12:00 -2.71003OSO10OSO051
13:00 -2.21005OSO10OSO050
14:00 -0.51006OSO11OSO050
15:00 -3.710011SO20OSO052
16:00 -4.6997SO17OSO052
17:00 -6.5992SSE6S053
18:00 -7.1983NE8NE053
19:00 -7.7983SO8SO052
20:00 -8.1983SE7SSO052
21:00 -8.0985SSO11SSO052
22:00 -7.7979SSO15SO052
23:00 -7.49714SO24SO052
minuit -7.5988SO22SO052

Graphique du 06-11-2019

 

Serveur OMMA